Flag for Syria Weather past 2 weeks in Damascus, Syria

Now
75 °F

Partly sunny.


Feels Like: 77 °F
Forecast: 55 / 81 °F
Wind: No wind

Location: Damascus Int. Airport

Current Time: Oct 22, 2014 at 4:35:17 PM

Latest Report: Oct 22, 2014 at 4:00 PM


Visibility: N/A

Pressure: 30.07 "Hg

Humidity: 25%

Dew point: 37 °F

Location of DamascusLocation

Historic Weather in Damascus — Graph

°F

Damascus temperature yesterday

Maximum temperature yesterday: 72 °F (at 4:00 PM)
Minimum temperature yesterday: 37 °F (at 7:00 AM)
Average temperature yesterday: 54 °F

Past Weeks' High & Low Weather Summary

 TemperatureHumidityPressure
High91 °F (Oct 8, 2:00 PM)100% (Oct 19, 11:00 PM)30.18 "Hg (Oct 19, 11:00 PM)
Low37 °F (Oct 21, 7:00 AM)15% (Oct 8, 2:00 PM)29.77 "Hg (Oct 19, 2:00 PM)
Average66 °F56%30.01 "Hg
* Reported Oct 7 11:00 PM — Oct 22 3:00 PM, Damascus, Weather by CustomWeather, © 2014

Note: Actual official high and low records may vary slightly from our data, if they occured in-between our weather recording intervals... More about our weather records

Advertising

Damascus weather history for previous 24 hours

 ConditionsComfort  
Time TempWeatherWind HumidityBarometerVisibility
3:00 PM
Oct 22
75 °FScattered clouds.No wind25%30.07 "HgN/A
2:00 PM73 °FSunny.5 mph29%30.09 "Hg10 mi
1:00 PM73 °FSunny.7 mph27%30.12 "Hg10 mi
12:00 PM68 °FSunny.5 mph33%30.15 "Hg10 mi
11:00 AM64 °FSunny.7 mph43%30.15 "Hg10 mi
10:00 AM61 °FSunny.3 mph48%30.15 "Hg10 mi
9:00 AM52 °FSunny.3 mph72%30.15 "Hg10 mi
8:00 AM45 °FSunny.3 mph81%30.15 "Hg10 mi
7:00 AM39 °FClear.6 mph81%30.15 "Hg10 mi
6:00 AM41 °FClear.3 mph76%30.12 "Hg10 mi
5:00 AM43 °FClear.3 mph76%30.12 "Hg10 mi
4:00 AM45 °FClear.2 mph76%30.09 "Hg10 mi
3:00 AM46 °FClear.6 mph71%30.12 "Hg10 mi
2:00 AM48 °FClear.6 mph66%30.12 "Hg10 mi
1:00 AM48 °FClear.5 mph66%30.12 "Hg10 mi
12:00 AM46 °FClear.5 mph66%30.12 "Hg10 mi
11:00 PM
Oct 21
48 °FClear.3 mph62%30.12 "Hg10 mi
10:00 PM52 °FClear.5 mph54%30.12 "Hg10 mi
9:00 PM54 °FClear.2 mph54%30.09 "Hg10 mi
8:00 PM59 °FClear.3 mph45%30.07 "Hg10 mi
7:00 PM61 °FClear.5 mph39%30.07 "Hg10 mi
6:00 PM66 °FSunny.5 mph24%30.04 "Hg10 mi
5:00 PM70 °FSunny.7 mph21%30.04 "Hg10 mi
4:00 PM72 °FSunny.7 mph88%30.04 "Hg10 mi
Weather by CustomWeather, © 2014

See weather overviewHow to use our weather pages